Time,TemperatureF,DewpointF,PressureIn,WindDirection,WindDirectionDegrees,WindSpeedMPH,WindSpeedGustMPH,Humidity,HourlyPrecipIn,Conditions,Clouds,dailyrainin,SoftwareType,DateUTC
2013-03-14 00:12:00,51.0,-99.9,30.04,NNW,348,11.0,13.0,-999,-99.99,,,-99.99,,2013-03-14 04:12:00,
2013-03-14 00:22:00,50.0,-99.9,30.04,NNW,347,11.0,15.0,-999,-99.99,,,-99.99,,2013-03-14 04:22:00,
2013-03-14 00:33:00,50.0,-99.9,30.05,NNW,345,14.0,20.0,-999,-99.99,,,-99.99,,2013-03-14 04:33:00,
2013-03-14 00:42:00,49.0,-99.9,30.05,NNW,342,9.0,13.0,-999,-99.99,,,-99.99,,2013-03-14 04:42:00,
2013-03-14 00:53:00,49.0,-99.9,30.05,NNW,340,10.0,14.0,-999,-99.99,,,-99.99,,2013-03-14 04:53:00,
2013-03-14 01:02:00,48.0,-99.9,30.05,NNW,342,10.0,13.0,-999,-99.99,,,-99.99,,2013-03-14 05:02:00,
2013-03-14 01:13:00,47.0,-99.9,30.06,NNW,344,12.0,16.0,-999,-99.99,,,-99.99,,2013-03-14 05:13:00,
2013-03-14 01:22:00,47.0,-99.9,30.06,NNW,342,11.0,16.0,-999,-99.99,,,-99.99,,2013-03-14 05:22:00,
2013-03-14 01:33:00,47.0,-99.9,30.06,NNW,335,13.0,20.0,-999,-99.99,,,-99.99,,2013-03-14 05:33:00,
2013-03-14 01:42:00,47.0,-99.9,30.06,NNW,339,12.0,15.0,-999,-99.99,,,-99.99,,2013-03-14 05:42:00,
2013-03-14 01:53:00,46.0,-99.9,30.07,NNW,340,13.0,15.0,-999,-99.99,,,-99.99,,2013-03-14 05:53:00,
2013-03-14 02:02:00,46.0,-99.9,30.07,NNW,346,11.0,16.0,-999,-99.99,,,-99.99,,2013-03-14 06:02:00,
2013-03-14 02:12:00,46.0,-99.9,30.07,NNW,347,11.0,15.0,-999,-99.99,,,-99.99,,2013-03-14 06:12:00,
2013-03-14 02:22:00,45.0,-99.9,30.07,NNW,341,11.0,15.0,-999,-99.99,,,-99.99,,2013-03-14 06:22:00,
2013-03-14 02:33:00,45.0,-99.9,30.08,NNW,347,12.0,16.0,-999,-99.99,,,-99.99,,2013-03-14 06:33:00,
2013-03-14 02:42:00,44.0,-99.9,30.08,NNW,340,9.0,13.0,-999,-99.99,,,-99.99,,2013-03-14 06:42:00,
2013-03-14 02:52:00,44.0,-99.9,30.08,NNW,335,16.0,24.0,-999,-99.99,,,-99.99,,2013-03-14 06:52:00,
2013-03-14 03:02:00,44.0,-99.9,30.09,NNW,342,12.0,16.0,-999,-99.99,,,-99.99,,2013-03-14 07:02:00,
2013-03-14 03:12:00,43.0,-99.9,30.09,NNW,343,14.0,19.0,-999,-99.99,,,-99.99,,2013-03-14 07:12:00,
2013-03-14 03:22:00,43.0,-99.9,30.09,NNW,343,14.0,19.0,-999,-99.99,,,-99.99,,2013-03-14 07:22:00,
2013-03-14 03:32:00,43.0,-99.9,30.09,NNW,345,12.0,17.0,-999,-99.99,,,-99.99,,2013-03-14 07:32:00,
2013-03-14 03:43:00,43.0,-99.9,30.09,NNW,341,12.0,17.0,-999,-99.99,,,-99.99,,2013-03-14 07:43:00,
2013-03-14 03:52:00,42.0,-99.9,30.10,NNW,342,13.0,16.0,-999,-99.99,,,-99.99,,2013-03-14 07:52:00,
2013-03-14 04:02:00,42.0,-99.9,30.09,NNW,336,16.0,21.0,-999,-99.99,,,-99.99,,2013-03-14 08:02:00,
2013-03-14 04:12:00,41.0,-99.9,30.10,NNW,344,18.0,23.0,-999,-99.99,,,-99.99,,2013-03-14 08:12:00,
2013-03-14 04:22:00,41.0,-99.9,30.10,NNW,343,16.0,22.0,-999,-99.99,,,-99.99,,2013-03-14 08:22:00,
2013-03-14 04:32:00,41.0,-99.9,30.10,NNW,346,16.0,20.0,-999,-99.99,,,-99.99,,2013-03-14 08:32:00,
2013-03-14 04:42:00,40.0,-99.9,30.10,NNW,341,12.0,15.0,-999,-99.99,,,-99.99,,2013-03-14 08:42:00,
2013-03-14 04:52:00,40.0,-99.9,30.11,NNW,332,14.0,22.0,-999,-99.99,,,-99.99,,2013-03-14 08:52:00,
2013-03-14 05:02:00,40.0,-99.9,30.11,NNW,342,11.0,16.0,-999,-99.99,,,-99.99,,2013-03-14 09:02:00,
2013-03-14 05:12:00,39.0,-99.9,30.11,NNW,338,12.0,16.0,-999,-99.99,,,-99.99,,2013-03-14 09:12:00,
2013-03-14 05:22:00,39.0,-99.9,30.12,NNW,341,12.0,16.0,-999,-99.99,,,-99.99,,2013-03-14 09:22:00,
2013-03-14 05:32:00,38.0,-99.9,30.12,NNW,333,13.0,17.0,-999,-99.99,,,-99.99,,2013-03-14 09:32:00,
2013-03-14 05:42:00,38.0,-99.9,30.13,NNW,340,13.0,17.0,-999,-99.99,,,-99.99,,2013-03-14 09:42:00,
2013-03-14 05:52:00,38.0,-99.9,30.13,NNW,342,14.0,18.0,-999,-99.99,,,-99.99,,2013-03-14 09:52:00,
2013-03-14 06:02:00,38.0,-99.9,30.13,NNW,341,12.0,15.0,-999,-99.99,,,-99.99,,2013-03-14 10:02:00,
2013-03-14 06:12:00,37.0,-99.9,30.14,NNW,336,12.0,16.0,-999,-99.99,,,-99.99,,2013-03-14 10:12:00,
2013-03-14 06:22:00,37.0,-99.9,30.14,NNW,335,10.0,14.0,-999,-99.99,,,-99.99,,2013-03-14 10:22:00,
2013-03-14 06:32:00,37.0,-99.9,30.14,NNW,336,16.0,21.0,-999,-99.99,,,-99.99,,2013-03-14 10:32:00,
2013-03-14 06:42:00,37.0,-99.9,30.15,NNW,335,13.0,18.0,-999,-99.99,,,-99.99,,2013-03-14 10:42:00,
2013-03-14 06:52:00,37.0,-99.9,30.16,NNW,338,13.0,17.0,-999,-99.99,,,-99.99,,2013-03-14 10:52:00,
2013-03-14 07:02:00,37.0,-99.9,30.16,NNW,338,15.0,22.0,-999,-99.99,,,-99.99,,2013-03-14 11:02:00,
2013-03-14 07:12:00,37.0,-99.9,30.16,NNW,342,12.0,15.0,-999,-99.99,,,-99.99,,2013-03-14 11:12:00,
2013-03-14 07:22:00,36.0,-99.9,30.16,NNW,337,11.0,15.0,-999,-99.99,,,-99.99,,2013-03-14 11:22:00,
2013-03-14 07:33:00,36.0,-99.9,30.17,NNW,328,13.0,17.0,-999,-99.99,,,-99.99,,2013-03-14 11:33:00,
2013-03-14 07:42:00,36.0,-99.9,30.17,NNW,328,12.0,17.0,-999,-99.99,,,-99.99,,2013-03-14 11:42:00,
2013-03-14 07:53:00,36.0,-99.9,30.17,NW,326,13.0,19.0,-999,-99.99,,,-99.99,,2013-03-14 11:53:00,
2013-03-14 08:02:00,36.0,-99.9,30.18,NW,326,13.0,18.0,-999,-99.99,,,-99.99,,2013-03-14 12:02:00,
2013-03-14 08:12:00,36.0,-99.9,30.19,NNW,327,9.0,14.0,-999,-99.99,,,-99.99,,2013-03-14 12:12:00,
2013-03-14 08:22:00,36.0,-99.9,30.19,NW,323,11.0,16.0,-999,-99.99,,,-99.99,,2013-03-14 12:22:00,
2013-03-14 08:33:00,37.0,-99.9,30.19,NNW,330,13.0,18.0,-999,-99.99,,,-99.99,,2013-03-14 12:33:00,
2013-03-14 08:43:00,37.0,-99.9,30.20,NNW,329,12.0,19.0,-999,-99.99,,,-99.99,,2013-03-14 12:43:00,
2013-03-14 08:52:00,37.0,-99.9,30.20,NNW,329,13.0,17.0,-999,-99.99,,,-99.99,,2013-03-14 12:52:00,
2013-03-14 09:03:00,37.0,-99.9,30.21,NW,324,14.0,18.0,-999,-99.99,,,-99.99,,2013-03-14 13:03:00,
2013-03-14 09:13:00,37.0,-99.9,30.22,NNW,332,17.0,25.0,-999,-99.99,,,-99.99,,2013-03-14 13:13:00,
2013-03-14 09:22:00,37.0,-99.9,30.22,NNW,340,17.0,23.0,-999,-99.99,,,-99.99,,2013-03-14 13:22:00,
2013-03-14 09:32:00,38.0,-99.9,30.22,NW,325,16.0,21.0,-999,-99.99,,,-99.99,,2013-03-14 13:32:00,
2013-03-14 09:43:00,38.0,-99.9,30.22,NW,325,16.0,21.0,-999,-99.99,,,-99.99,,2013-03-14 13:43:00,
2013-03-14 09:53:00,38.0,-99.9,30.22,NNW,342,17.0,21.0,-999,-99.99,,,-99.99,,2013-03-14 13:53:00,
2013-03-14 10:03:00,39.0,-99.9,30.22,NNW,344,17.0,23.0,-999,-99.99,,,-99.99,,2013-03-14 14:03:00,
2013-03-14 10:12:00,40.0,-99.9,30.22,NNW,343,11.0,15.0,-999,-99.99,,,-99.99,,2013-03-14 14:12:00,
2013-03-14 10:22:00,39.0,-99.9,30.22,NNW,331,18.0,25.0,-999,-99.99,,,-99.99,,2013-03-14 14:22:00,
2013-03-14 10:32:00,39.0,-99.9,30.22,NNW,344,18.0,24.0,-999,-99.99,,,-99.99,,2013-03-14 14:32:00,
2013-03-14 10:43:00,39.0,-99.9,30.22,North,350,19.0,26.0,-999,-99.99,,,-99.99,,2013-03-14 14:43:00,
2013-03-14 10:53:00,40.0,-99.9,30.21,NNW,333,16.0,23.0,-999,-99.99,,,-99.99,,2013-03-14 14:53:00,
2013-03-14 11:02:00,40.0,-99.9,30.22,NNW,337,15.0,21.0,-999,-99.99,,,-99.99,,2013-03-14 15:02:00,
2013-03-14 11:12:00,40.0,-99.9,30.22,NNW,335,15.0,19.0,-999,-99.99,,,-99.99,,2013-03-14 15:12:00,
2013-03-14 11:22:00,40.0,-99.9,30.21,NNW,338,14.0,19.0,-999,-99.99,,,-99.99,,2013-03-14 15:22:00,
2013-03-14 11:33:00,40.0,-99.9,30.21,North,350,12.0,16.0,-999,-99.99,,,-99.99,,2013-03-14 15:33:00,
2013-03-14 11:43:00,40.0,-99.9,30.21,NNW,343,11.0,14.0,-999,-99.99,,,-99.99,,2013-03-14 15:43:00,
2013-03-14 11:52:00,42.0,-99.9,30.20,NNW,336,12.0,18.0,-999,-99.99,,,-99.99,,2013-03-14 15:52:00,
2013-03-14 12:03:00,42.0,-99.9,30.21,NW,320,11.0,14.0,-999,-99.99,,,-99.99,,2013-03-14 16:03:00,
2013-03-14 12:13:00,42.0,-99.9,30.21,NW,308,14.0,21.0,-999,-99.99,,,-99.99,,2013-03-14 16:13:00,
2013-03-14 12:23:00,42.0,-99.9,30.21,NW,318,14.0,20.0,-999,-99.99,,,-99.99,,2013-03-14 16:23:00,
2013-03-14 12:33:00,42.0,-99.9,30.21,NW,314,9.0,14.0,-999,-99.99,,,-99.99,,2013-03-14 16:33:00,
2013-03-14 12:42:00,43.0,-99.9,30.21,NW,320,11.0,14.0,-999,-99.99,,,-99.99,,2013-03-14 16:42:00,
2013-03-14 12:52:00,43.0,-99.9,30.21,WNW,303,10.0,15.0,-999,-99.99,,,-99.99,,2013-03-14 16:52:00,
2013-03-14 13:03:00,43.0,-99.9,30.20,NNW,338,13.0,18.0,-999,-99.99,,,-99.99,,2013-03-14 17:03:00,
2013-03-14 13:13:00,44.0,-99.9,30.19,WNW,300,12.0,18.0,-999,-99.99,,,-99.99,,2013-03-14 17:13:00,
2013-03-14 13:23:00,44.0,-99.9,30.19,NNW,331,9.0,13.0,-999,-99.99,,,-99.99,,2013-03-14 17:23:00,
2013-03-14 13:33:00,44.0,-99.9,30.19,NW,316,15.0,18.0,-999,-99.99,,,-99.99,,2013-03-14 17:33:00,
2013-03-14 13:42:00,45.0,-99.9,30.19,NW,319,11.0,15.0,-999,-99.99,,,-99.99,,2013-03-14 17:42:00,
2013-03-14 13:53:00,45.0,-99.9,30.18,NW,310,12.0,19.0,-999,-99.99,,,-99.99,,2013-03-14 17:53:00,
2013-03-14 14:03:00,45.0,-99.9,30.16,NW,312,10.0,14.0,-999,-99.99,,,-99.99,,2013-03-14 18:03:00,
2013-03-14 14:13:00,46.0,-99.9,30.16,NNW,339,11.0,15.0,-999,-99.99,,,-99.99,,2013-03-14 18:13:00,
2013-03-14 14:23:00,46.0,-99.9,30.16,NW,310,15.0,20.0,-999,-99.99,,,-99.99,,2013-03-14 18:23:00,
2013-03-14 14:33:00,47.0,-99.9,30.16,NW,322,15.0,20.0,-999,-99.99,,,-99.99,,2013-03-14 18:33:00,
2013-03-14 14:43:00,47.0,-99.9,30.15,NW,320,11.0,16.0,-999,-99.99,,,-99.99,,2013-03-14 18:43:00,
2013-03-14 14:53:00,48.0,-99.9,30.15,NNW,334,13.0,19.0,-999,-99.99,,,-99.99,,2013-03-14 18:53:00,
2013-03-14 15:03:00,47.0,-99.9,30.15,NNW,342,11.0,15.0,-999,-99.99,,,-99.99,,2013-03-14 19:03:00,
2013-03-14 15:12:00,47.0,-99.9,30.15,NW,321,10.0,16.0,-999,-99.99,,,-99.99,,2013-03-14 19:12:00,
2013-03-14 15:23:00,48.0,-99.9,30.14,NW,307,7.0,10.0,-999,-99.99,,,-99.99,,2013-03-14 19:23:00,
2013-03-14 15:32:00,48.0,-99.9,30.14,WNW,302,13.0,19.0,-999,-99.99,,,-99.99,,2013-03-14 19:32:00,
2013-03-14 15:43:00,49.0,-99.9,30.13,NNW,335,11.0,15.0,-999,-99.99,,,-99.99,,2013-03-14 19:43:00,
2013-03-14 15:52:00,49.0,-99.9,30.13,NW,316,11.0,17.0,-999,-99.99,,,-99.99,,2013-03-14 19:52:00,
2013-03-14 16:02:00,49.0,-99.9,30.13,NNW,332,13.0,18.0,-999,-99.99,,,-99.99,,2013-03-14 20:02:00,
2013-03-14 16:12:00,50.0,-99.9,30.13,WNW,286,12.0,17.0,-999,-99.99,,,-99.99,,2013-03-14 20:12:00,
2013-03-14 16:22:00,50.0,-99.9,30.13,NNW,334,8.0,12.0,-999,-99.99,,,-99.99,,2013-03-14 20:22:00,
2013-03-14 16:32:00,51.0,-99.9,30.13,West,280,7.0,11.0,-999,-99.99,,,-99.99,,2013-03-14 20:32:00,
2013-03-14 16:43:00,51.0,-99.9,30.12,West,259,10.0,16.0,-999,-99.99,,,-99.99,,2013-03-14 20:43:00,
2013-03-14 16:53:00,51.0,-99.9,30.13,WNW,295,11.0,15.0,-999,-99.99,,,-99.99,,2013-03-14 20:53:00,
2013-03-14 17:03:00,52.0,-99.9,30.12,WNW,291,10.0,14.0,-999,-99.99,,,-99.99,,2013-03-14 21:03:00,
2013-03-14 17:13:00,51.0,-99.9,30.11,NW,308,8.0,9.0,-999,-99.99,,,-99.99,,2013-03-14 21:13:00,
2013-03-14 17:23:00,52.0,-99.9,30.11,WNW,291,7.0,11.0,-999,-99.99,,,-99.99,,2013-03-14 21:23:00,
2013-03-14 17:33:00,51.0,-99.9,30.11,WNW,298,12.0,17.0,-999,-99.99,,,-99.99,,2013-03-14 21:33:00,
2013-03-14 17:44:00,52.0,-99.9,30.11,West,270,11.0,15.0,-999,-99.99,,,-99.99,,2013-03-14 21:44:00,
2013-03-14 17:53:00,52.0,-99.9,30.11,West,266,11.0,15.0,-999,-99.99,,,-99.99,,2013-03-14 21:53:00,
2013-03-14 18:04:00,53.0,-99.9,30.11,NNW,328,9.0,13.0,-999,-99.99,,,-99.99,,2013-03-14 22:04:00,
2013-03-14 18:13:00,53.0,-99.9,30.11,NW,311,9.0,12.0,-999,-99.99,,,-99.99,,2013-03-14 22:13:00,
2013-03-14 18:23:00,52.0,-99.9,30.11,West,280,10.0,15.0,-999,-99.99,,,-99.99,,2013-03-14 22:23:00,
2013-03-14 18:33:00,52.0,-99.9,30.11,WNW,290,10.0,13.0,-999,-99.99,,,-99.99,,2013-03-14 22:33:00,
2013-03-14 18:42:00,53.0,-99.9,30.10,WNW,290,7.0,10.0,-999,-99.99,,,-99.99,,2013-03-14 22:42:00,
2013-03-14 18:53:00,52.0,-99.9,30.10,NW,309,9.0,11.0,-999,-99.99,,,-99.99,,2013-03-14 22:53:00,
2013-03-14 19:03:00,53.0,-99.9,30.10,West,277,8.0,11.0,-999,-99.99,,,-99.99,,2013-03-14 23:03:00,
2013-03-14 19:12:00,52.0,-99.9,30.11,WNW,299,8.0,10.0,-999,-99.99,,,-99.99,,2013-03-14 23:12:00,
2013-03-14 19:23:00,52.0,-99.9,30.11,WNW,299,7.0,10.0,-999,-99.99,,,-99.99,,2013-03-14 23:23:00,
2013-03-14 19:33:00,51.0,-99.9,30.11,WNW,284,8.0,11.0,-999,-99.99,,,-99.99,,2013-03-14 23:33:00,
2013-03-14 19:43:00,51.0,-99.9,30.11,West,277,7.0,10.0,-999,-99.99,,,-99.99,,2013-03-14 23:43:00,
2013-03-14 19:54:00,51.0,-99.9,30.11,West,274,4.0,6.0,-999,-99.99,,,-99.99,,2013-03-14 23:54:00,
2013-03-14 20:02:00,51.0,-99.9,30.12,WNW,282,6.0,8.0,-999,-99.99,,,-99.99,,2013-03-15 00:02:00,
2013-03-14 20:12:00,50.0,-99.9,30.12,West,278,6.0,8.0,-999,-99.99,,,-99.99,,2013-03-15 00:12:00,
2013-03-14 20:23:00,50.0,-99.9,30.13,West,281,7.0,9.0,-999,-99.99,,,-99.99,,2013-03-15 00:23:00,
2013-03-14 20:33:00,49.0,-99.9,30.13,West,273,4.0,6.0,-999,-99.99,,,-99.99,,2013-03-15 00:33:00,
2013-03-14 20:43:00,49.0,-99.9,30.13,West,266,4.0,5.0,-999,-99.99,,,-99.99,,2013-03-15 00:43:00,
2013-03-14 20:52:00,49.0,-99.9,30.13,West,263,4.0,6.0,-999,-99.99,,,-99.99,,2013-03-15 00:52:00,
2013-03-14 21:02:00,49.0,-99.9,30.14,WSW,251,7.0,8.0,-999,-99.99,,,-99.99,,2013-03-15 01:02:00,
2013-03-14 21:12:00,48.0,-99.9,30.14,WSW,250,5.0,7.0,-999,-99.99,,,-99.99,,2013-03-15 01:12:00,
2013-03-14 21:23:00,48.0,-99.9,30.14,WSW,246,6.0,7.0,-999,-99.99,,,-99.99,,2013-03-15 01:23:00,
2013-03-14 21:33:00,48.0,-99.9,30.14,WSW,248,6.0,8.0,-999,-99.99,,,-99.99,,2013-03-15 01:33:00,
2013-03-14 21:43:00,48.0,-99.9,30.14,WSW,247,7.0,9.0,-999,-99.99,,,-99.99,,2013-03-15 01:43:00,
2013-03-14 21:52:00,47.0,-99.9,30.14,WSW,246,8.0,10.0,-999,-99.99,,,-99.99,,2013-03-15 01:52:00,
2013-03-14 22:03:00,47.0,-99.9,30.14,WSW,247,8.0,10.0,-999,-99.99,,,-99.99,,2013-03-15 02:03:00,
2013-03-14 22:12:00,47.0,-99.9,30.14,WSW,247,8.0,9.0,-999,-99.99,,,-99.99,,2013-03-15 02:12:00,
2013-03-14 22:22:00,47.0,-99.9,30.14,WSW,245,8.0,10.0,-999,-99.99,,,-99.99,,2013-03-15 02:22:00,
2013-03-14 22:32:00,47.0,-99.9,30.14,WSW,250,8.0,10.0,-999,-99.99,,,-99.99,,2013-03-15 02:32:00,
2013-03-14 22:42:00,47.0,-99.9,30.14,WSW,252,6.0,9.0,-999,-99.99,,,-99.99,,2013-03-15 02:42:00,
2013-03-14 22:52:00,46.0,-99.9,30.14,WSW,255,9.0,10.0,-999,-99.99,,,-99.99,,2013-03-15 02:52:00,
2013-03-14 23:02:00,46.0,-99.9,30.14,WSW,254,8.0,13.0,-999,-99.99,,,-99.99,,2013-03-15 03:02:00,
2013-03-14 23:13:00,46.0,-99.9,30.14,West,261,6.0,8.0,-999,-99.99,,,-99.99,,2013-03-15 03:13:00,
2013-03-14 23:22:00,46.0,-99.9,30.14,WSW,253,6.0,7.0,-999,-99.99,,,-99.99,,2013-03-15 03:22:00,
2013-03-14 23:33:00,46.0,-99.9,30.14,WSW,255,6.0,9.0,-999,-99.99,,,-99.99,,2013-03-15 03:33:00,
2013-03-14 23:43:00,46.0,-99.9,30.14,West,264,6.0,8.0,-999,-99.99,,,-99.99,,2013-03-15 03:43:00,
2013-03-14 23:53:00,46.0,-99.9,30.14,West,264,6.0,8.0,-999,-99.99,,,-99.99,,2013-03-15 03:53:00,